Flag for Canada Weather past 2 weeks in Yarmouth County, Nova Scotia, Canada

Now
57 °F

Passing clouds.


Feels Like: 55 °F
Forecast: 58 / 72 °F
Wind: 9 mph from Southwest

Location: Yarmouth

Current Time: Sep 21, 2014 at 1:13:04 AM

Latest Report: Sep 21, 2014 at 12:00 AM


Visibility: 15 mi

Pressure: 30.19 "Hg

Humidity: 88%

Dew point: 54 °F

Location of Yarmouth CountyLocation

Historic Weather in Yarmouth County — Graph

°F

Yarmouth County temperature yesterday

Maximum temperature yesterday: 61 °F (at 2:00 PM)
Minimum temperature yesterday: 36 °F (at 6:00 AM)
Average temperature yesterday: 49 °F

Past Weeks' High & Low Weather Summary

 TemperatureHumidityPressure
High70 °F (Sep 8, 3:00 PM)100% (Sep 6, 1:00 AM)30.45 "Hg (Sep 6, 1:00 AM)
Low36 °F (Sep 20, 6:00 AM)25% (Sep 8, 5:00 PM)29.79 "Hg (Sep 7, 12:00 AM)
Average57 °F83%30.11 "Hg
* Reported Sep 5 11:00 PM — Sep 20 11:00 PM, Yarmouth County, Weather by CustomWeather, © 2014

Note: Actual official high and low records may vary slightly from our data, if they occured in-between our weather recording intervals... More about our weather records

Advertising

Yarmouth County weather history for previous 24 hours

 ConditionsComfort  
Time TempWeatherWind HumidityBarometerVisibility
11:00 PM
Sep 20
57 °FPassing clouds.10 mph88%30.21 "Hg15 mi
10:00 PM57 °FPassing clouds.10 mph88%30.22 "Hg15 mi
9:00 PM57 °FHigh level clouds.12 mph88%30.22 "Hg15 mi
8:00 PM57 °FHigh level clouds.12 mph88%30.22 "Hg15 mi
7:00 PM57 °FHigh level clouds.10 mph88%30.24 "Hg15 mi
6:00 PM59 °FOvercast.12 mph77%30.26 "Hg15 mi
5:00 PM61 °FOvercast.15 mph72%30.27 "Hg15 mi
4:00 PM61 °FOvercast.17 mph68%30.28 "Hg15 mi
3:00 PM61 °FOvercast.15 mph68%30.31 "Hg15 mi
2:00 PM61 °FMostly cloudy.17 mph63%30.33 "Hg15 mi
10:00 AM55 °FPartly sunny.13 mph67%30.40 "Hg15 mi
9:00 AM50 °FScattered clouds.7 mph76%30.40 "Hg15 mi
8:00 AM39 °FPassing clouds.5 mph87%30.42 "Hg12 mi
7:00 AM36 °FPassing clouds.2 mph93%30.43 "Hg12 mi
6:00 AM36 °FClear.No wind100%30.42 "Hg15 mi
5:00 AM37 °FClear.No wind100%30.42 "Hg15 mi
4:00 AM39 °FClear.2 mph81%30.43 "Hg15 mi
3:00 AM39 °FClear.5 mph75%30.43 "Hg15 mi
2:00 AM41 °FClear.3 mph61%30.44 "Hg15 mi
1:00 AM37 °FClear.5 mph75%30.45 "Hg15 mi
Weather by CustomWeather, © 2014

See weather overviewHow to use our weather pages